Lid_Strength_Index
3 3 3 4 4 4 4 4 4 5 4 4 4 5 5 5 5 5 5 5 5 5 5 5 5 5 5 4 4 4 -1 -0 3 2 2 3 5 7 8 6 7 7 6 5 4 4 4
4 4 3 3 4 4 4 4 4 4 4 5 5 5 5 5 5 5 5 5 5 5 5 5 5 5 4 7 1 2 2 1 1 1 2 2 4 3 5 6 6 5 5 5 4 5 4
4 4 4 4 4 4 4 3 3 4 5 5 5 5 5 5 5 5 5 5 5 5 5 6 5 5 7 7 2 1 2 2 1 1 3 2 2 4 4 6 4 5 7 6 5 5 6
4 4 4 4 4 4 4 4 4 4 4 4 5 5 5 5 5 5 5 5 5 5 5 5 4 6 6 4 2 1 3 1 0 0 1 1 1 3 4 4 5 6 6 9 6 5 5
5 4 4 4 4 5 5 4 4 4 4 4 4 5 5 5 5 5 5 5 5 4 4 4 5 5 6 3 4 2 2 3 2 2 1 1 2 4 4 9 11 7 11 9 8 5 6
4 4 4 4 4 4 5 5 5 5 4 4 4 4 4 5 5 5 6 5 3 4 4 4 4 6 4 5 3 2 1 2 3 3 3 3 4 6 6 9 12 10 10 8 8 7 6
4 4 4 4 4 5 5 5 5 5 4 4 5 5 5 5 5 5 5 3 4 5 4 5 4 4 4 3 2 3 2 3 3 3 6 5 7 9 8 7 6 7 7 8 7 6 6
4 4 4 4 4 4 4 4 4 5 5 5 5 5 5 5 5 6 5 4 3 3 6 4 3 3 2 2 4 4 2 4 5 7 5 7 9 6 6 6 7 7 8 8 7 5 6
4 4 4 4 4 4 4 5 5 5 5 5 5 5 5 6 6 5 4 3 1 2 6 5 3 3 3 2 4 3 2 4 5 7 7 8 7 5 6 7 7 7 8 8 8 6 5
3 4 4 4 4 4 4 4 4 5 5 5 5 5 6 6 6 3 4 2 2 2 8 7 6 4 3 3 4 2 2 3 5 7 6 6 5 6 7 7 7 9 6 7 7 8 10
3 3 3 4 4 4 4 4 4 5 5 5 5 6 6 6 5 4 2 2 2 3 12 6 5 3 4 4 4 3 1 3 6 6 6 7 6 6 7 7 6 8 6 6 7 8 8
3 3 3 3 3 4 4 5 5 5 5 5 5 6 6 4 4 4 2 2 3 8 11 7 5 6 7 5 5 3 3 2 3 5 5 6 4 5 6 5 5 5 6 6 7 8 11
3 3 3 3 3 4 4 4 5 5 5 5 6 6 6 4 4 2 2 3 8 10 6 7 6 6 7 7 6 5 5 6 7 9 8 6 6 5 4 6 5 6 8 11 12 12 12
3 3 3 3 3 4 4 4 4 5 5 6 6 7 5 4 3 3 3 6 10 7 7 5 5 6 7 6 6 7 6 7 5 6 8 9 10 6 5 6 7 7 7 10 14 13 11
3 3 3 3 3 3 4 4 4 4 5 6 7 2 3 2 3 3 5 9 8 7 5 6 6 7 7 6 6 6 7 7 6 5 8 9 8 5 5 5 5 7 8 6 9 8 10
4 3 3 3 3 3 3 4 4 4 5 6 3 3 3 2 3 4 7 9 6 5 5 5 7 6 8 7 7 7 7 6 6 5 4 6 9 6 5 5 5 6 5 9 8 12 13
4 4 3 3 4 3 3 4 4 4 5 6 3 3 1 1 2 6 9 8 6 4 4 6 6 7 7 7 7 7 7 5 5 5 5 5 7 7 6 7 7 7 8 7 8 9 11
4 4 4 4 4 3 3 3 4 5 6 4 2 5 0 1 7 6 7 6 7 5 4 5 5 6 6 6 7 7 7 6 4 4 6 5 7 9 8 5 5 6 7 7 9 10 9
4 4 4 4 4 4 3 3 4 5 6 5 4 3 1 2 8 8 6 6 5 5 5 5 6 5 5 6 7 6 6 5 4 5 6 5 7 10 9 7 6 7 6 6 7 7 9
4 4 4 4 4 4 4 4 4 4 5 4 4 6 3 3 4 6 6 6 6 4 5 4 5 5 5 6 5 6 6 5 4 4 2 3 7 8 10 8 7 8 7 6 7 9 9
4 4 4 4 4 4 4 4 4 4 5 4 3 5 4 6 5 5 5 5 6 6 4 4 5 6 6 7 7 7 6 5 5 3 4 5 8 7 7 7 7 7 8 7 8 8 10
3 4 4 4 4 4 4 4 4 5 5 2 4 5 4 5 4 5 6 6 6 6 5 6 6 5 5 6 6 7 6 6 6 5 5 5 8 7 8 7 7 8 7 7 7 9 9
3 3 4 3 3 3 3 3 4 5 5 2 2 2 4 5 5 5 5 5 5 5 4 4 5 5 6 5 5 4 4 4 4 5 6 6 7 8 10 8 8 10 7 7 7 7 8
3 3 3 3 3 3 3 3 3 4 5 3 2 3 5 7 5 5 5 5 5 5 6 4 4 5 4 2 3 3 4 4 4 5 4 6 7 8 10 9 13 7 5 6 8 8 7
3 3 3 4 4 4 4 4 3 4 4 4 2 3 4 7 5 5 5 5 5 4 5 5 4 3 2 4 6 7 7 7 6 5 5 5 6 9 11 10 9 7 6 7 8 8 6
4 4 3 4 4 4 4 4 4 3 4 4 2 2 3 5 5 4 5 4 5 5 5 4 3 2 3 5 7 10 11 9 9 7 5 5 5 8 9 11 13 8 6 5 5 10 6
4 4 4 4 4 4 4 4 3 3 4 4 2 0 3 5 3 3 5 5 4 4 5 4 4 4 3 6 8 9 9 7 9 9 8 8 8 9 10 11 9 7 5 5 11 11 6
4 4 4 4 4 3 3 3 3 3 3 4 2 -0 3 4 4 3 3 4 4 4 6 4 5 4 5 7 7 7 8 7 8 7 8 9 10 10 10 11 13 5 6 10 8 5 5
5 4 4 4 4 4 3 3 3 3 3 3 3 0 -0 3 3 1 1 1 2 3 4 4 4 5 5 7 7 7 8 7 8 10 6 9 8 9 9 9 6 5 6 5 5 6 5